Location: St. Louis
(38.6270°N, 90.1994°W)
Time: 19:42:05
(UTC-06:00)

Vanguard 1 - Pass Details

Date: 02 December 2021
Orbit: 652 x 3830 km, 34.2° (Epoch: 21 January)

Event Time Altitude Azimuth Distance (km) Brightness Sun altitude
Exits shadow 03:15:14 71° 233° (SW) 3,521 12.4 -43.4°
Maximum altitude 03:17:59 77° 184° (S) 3,309 12.4 -42.9°
Drops below altitude 10° 03:33:15 10° 101° (ESE) 4,816 14.2 -39.9°
Sets 03:36:12 0° 100° (E) 5,486 14.8 -39.3°
